Year,Month,Day,Hour,Minute,Value (Times are PST for temperature in C)
2009,05,28,00,00,8.80
2009,05,28,00,01,8.80
2009,05,28,00,02,8.80
2009,05,28,00,03,8.80
2009,05,28,00,04,8.70
2009,05,28,00,05,8.70
2009,05,28,00,06,8.70
2009,05,28,00,07,8.70
2009,05,28,00,08,8.70
2009,05,28,00,09,8.70
2009,05,28,00,10,8.60
2009,05,28,00,11,8.60
2009,05,28,00,12,8.60
2009,05,28,00,13,8.60
2009,05,28,00,14,8.60
2009,05,28,00,15,8.50
2009,05,28,00,16,8.50
2009,05,28,00,17,8.50
2009,05,28,00,18,8.40
2009,05,28,00,19,8.40
2009,05,28,00,20,8.40
2009,05,28,00,21,8.40
2009,05,28,00,22,8.30
2009,05,28,00,23,8.30
2009,05,28,00,24,8.30
2009,05,28,00,25,8.30
2009,05,28,00,26,8.30
2009,05,28,00,27,8.20
2009,05,28,00,28,8.20
2009,05,28,00,29,8.20
2009,05,28,00,30,8.20
2009,05,28,00,31,8.20
2009,05,28,00,32,8.20
2009,05,28,00,33,8.20
2009,05,28,00,34,8.20
2009,05,28,00,35,8.20
2009,05,28,00,36,8.20
2009,05,28,00,37,8.10
2009,05,28,00,38,8.10
2009,05,28,00,39,8.10
2009,05,28,00,40,8.10
2009,05,28,00,41,8.10
2009,05,28,00,42,8.10
2009,05,28,00,43,8.10
2009,05,28,00,44,8.00
2009,05,28,00,45,8.00
2009,05,28,00,46,8.00
2009,05,28,00,47,7.90
2009,05,28,00,48,7.90
2009,05,28,00,49,7.90
2009,05,28,00,50,7.90
2009,05,28,00,51,7.90
2009,05,28,00,52,7.90
2009,05,28,00,53,7.80
2009,05,28,00,54,7.80
2009,05,28,00,55,7.80
2009,05,28,00,56,7.80
2009,05,28,00,57,7.80
2009,05,28,00,58,7.80
2009,05,28,00,59,7.80
2009,05,28,01,00,7.80
2009,05,28,01,01,7.80
2009,05,28,01,02,7.80
2009,05,28,01,03,7.80
2009,05,28,01,04,7.80
2009,05,28,01,05,7.80
2009,05,28,01,06,7.80
2009,05,28,01,07,7.80
2009,05,28,01,08,7.80
2009,05,28,01,09,7.80
2009,05,28,01,10,7.80
2009,05,28,01,11,7.80
2009,05,28,01,12,7.80
2009,05,28,01,13,7.80
2009,05,28,01,14,7.80
2009,05,28,01,15,7.80
2009,05,28,01,16,7.80
2009,05,28,01,17,7.80
2009,05,28,01,18,7.80
2009,05,28,01,19,7.80
2009,05,28,01,20,7.80
2009,05,28,01,21,7.80
2009,05,28,01,22,7.80
2009,05,28,01,23,7.80
2009,05,28,01,24,7.80
2009,05,28,01,25,7.80
2009,05,28,01,26,7.80
2009,05,28,01,27,7.80
2009,05,28,01,28,7.70
2009,05,28,01,29,7.70
2009,05,28,01,30,7.70
2009,05,28,01,31,7.70
2009,05,28,01,32,7.70
2009,05,28,01,33,7.70
2009,05,28,01,34,7.70
2009,05,28,01,35,7.70
2009,05,28,01,36,7.60
2009,05,28,01,37,7.60
2009,05,28,01,38,7.60
2009,05,28,01,39,7.60
2009,05,28,01,40,7.60
2009,05,28,01,41,7.50
2009,05,28,01,42,7.50
2009,05,28,01,43,7.50
2009,05,28,01,44,7.40
2009,05,28,01,45,7.40
2009,05,28,01,46,7.40
2009,05,28,01,47,7.40
2009,05,28,01,48,7.40
2009,05,28,01,49,7.40
2009,05,28,01,50,7.40
2009,05,28,01,51,7.40
2009,05,28,01,52,7.30
2009,05,28,01,53,7.30
2009,05,28,01,54,7.30
2009,05,28,01,55,7.30
2009,05,28,01,56,7.20
2009,05,28,01,57,7.20
2009,05,28,01,58,7.20
2009,05,28,01,59,7.20
2009,05,28,02,00,7.20
2009,05,28,02,01,7.20
2009,05,28,02,02,7.20
2009,05,28,02,03,7.20
2009,05,28,02,04,7.20
2009,05,28,02,05,7.20
2009,05,28,02,06,7.20
2009,05,28,02,07,7.20
2009,05,28,02,08,7.20
2009,05,28,02,09,7.20
2009,05,28,02,10,7.20
2009,05,28,02,11,7.20
2009,05,28,02,12,7.10
2009,05,28,02,13,7.10
2009,05,28,02,14,7.10
2009,05,28,02,15,7.10
2009,05,28,02,16,7.10
2009,05,28,02,17,7.10
2009,05,28,02,18,7.10
2009,05,28,02,19,7.10
2009,05,28,02,20,7.10
2009,05,28,02,21,7.10
2009,05,28,02,22,7.00
2009,05,28,02,23,7.00
2009,05,28,02,24,7.00
2009,05,28,02,25,7.00
2009,05,28,02,26,7.00
2009,05,28,02,27,6.90
2009,05,28,02,28,6.90
2009,05,28,02,29,6.90
2009,05,28,02,30,6.90
2009,05,28,02,31,6.90
2009,05,28,02,32,6.90
2009,05,28,02,33,6.90
2009,05,28,02,34,6.90
2009,05,28,02,35,6.80
2009,05,28,02,36,6.80
2009,05,28,02,37,6.80
2009,05,28,02,38,6.80
2009,05,28,02,39,6.80
2009,05,28,02,40,6.80
2009,05,28,02,41,6.80
2009,05,28,02,42,6.80
2009,05,28,02,43,6.80
2009,05,28,02,44,6.80
2009,05,28,02,45,6.80
2009,05,28,02,46,6.80
2009,05,28,02,47,6.80
2009,05,28,02,48,6.80
2009,05,28,02,49,6.80
2009,05,28,02,50,6.80
2009,05,28,02,51,6.80
2009,05,28,02,52,6.80
2009,05,28,02,53,6.80
2009,05,28,02,54,6.70
2009,05,28,02,55,6.70
2009,05,28,02,56,6.70
2009,05,28,02,57,6.70
2009,05,28,02,58,6.70
2009,05,28,02,59,6.70
2009,05,28,03,00,6.70
2009,05,28,03,01,6.70
2009,05,28,03,02,6.70
2009,05,28,03,03,6.70
2009,05,28,03,04,6.70
2009,05,28,03,05,6.70
2009,05,28,03,06,6.70
2009,05,28,03,07,6.70
2009,05,28,03,08,6.70
2009,05,28,03,09,6.70
2009,05,28,03,10,6.70
2009,05,28,03,11,6.70
2009,05,28,03,12,6.60
2009,05,28,03,13,6.60
2009,05,28,03,14,6.60
2009,05,28,03,15,6.60
2009,05,28,03,16,6.60
2009,05,28,03,17,6.60
2009,05,28,03,18,6.60
2009,05,28,03,19,6.60
2009,05,28,03,20,6.50
2009,05,28,03,21,6.50
2009,05,28,03,22,6.50
2009,05,28,03,23,6.50
2009,05,28,03,24,6.50
2009,05,28,03,25,6.40
2009,05,28,03,26,6.40
2009,05,28,03,27,6.40
2009,05,28,03,28,6.40
2009,05,28,03,29,6.30
2009,05,28,03,30,6.30
2009,05,28,03,31,6.30
2009,05,28,03,32,6.30
2009,05,28,03,33,6.30
2009,05,28,03,34,6.30
2009,05,28,03,35,6.30
2009,05,28,03,36,6.30
2009,05,28,03,37,6.30
2009,05,28,03,38,6.30
2009,05,28,03,39,6.30
2009,05,28,03,40,6.30
2009,05,28,03,41,6.30
2009,05,28,03,42,6.30
2009,05,28,03,43,6.30
2009,05,28,03,44,6.30
2009,05,28,03,45,6.30
2009,05,28,03,46,6.30
2009,05,28,03,47,6.30
2009,05,28,03,48,6.40
2009,05,28,03,49,6.40
2009,05,28,03,50,6.40
2009,05,28,03,51,6.40
2009,05,28,03,52,6.40
2009,05,28,03,53,6.40
2009,05,28,03,54,6.40
2009,05,28,03,55,6.40
2009,05,28,03,56,6.40
2009,05,28,03,57,6.40
2009,05,28,03,58,6.30
2009,05,28,03,59,6.40
2009,05,28,04,00,6.40
2009,05,28,04,01,6.30
2009,05,28,04,02,6.30
2009,05,28,04,03,6.30
2009,05,28,04,04,6.30
2009,05,28,04,05,6.30
2009,05,28,04,06,6.30
2009,05,28,04,07,6.30
2009,05,28,04,08,6.30
2009,05,28,04,09,6.20
2009,05,28,04,10,6.20
2009,05,28,04,11,6.20
2009,05,28,04,12,6.20
2009,05,28,04,13,6.10
2009,05,28,04,14,6.10
2009,05,28,04,15,6.10
2009,05,28,04,16,6.10
2009,05,28,04,17,6.10
2009,05,28,04,18,6.10
2009,05,28,04,19,6.10
2009,05,28,04,20,6.10
2009,05,28,04,21,6.10
2009,05,28,04,22,6.10
2009,05,28,04,23,6.10
2009,05,28,04,24,6.10
2009,05,28,04,25,6.00
2009,05,28,04,26,6.00
2009,05,28,04,27,6.00
2009,05,28,04,28,6.00
2009,05,28,04,29,6.10
2009,05,28,04,30,6.10
2009,05,28,04,31,6.10
2009,05,28,04,32,6.10
2009,05,28,04,33,6.10
2009,05,28,04,34,6.10
2009,05,28,04,35,6.00
2009,05,28,04,36,6.00
2009,05,28,04,37,6.00
2009,05,28,04,38,6.00
2009,05,28,04,39,6.00
2009,05,28,04,40,6.00
2009,05,28,04,41,6.00
2009,05,28,04,42,5.90
2009,05,28,04,43,5.90
2009,05,28,04,44,5.90
2009,05,28,04,45,5.90
2009,05,28,04,46,5.90
2009,05,28,04,47,6.00
2009,05,28,04,48,6.00
2009,05,28,04,49,6.00
2009,05,28,04,50,6.00
2009,05,28,04,51,6.00
2009,05,28,04,52,6.10
2009,05,28,04,53,6.10
2009,05,28,04,54,6.10
2009,05,28,04,55,6.10
2009,05,28,04,56,6.10
2009,05,28,04,57,6.10
2009,05,28,04,58,6.10
2009,05,28,04,59,6.10
2009,05,28,05,00,6.10
2009,05,28,05,01,6.10
2009,05,28,05,02,6.10
2009,05,28,05,03,6.00
2009,05,28,05,04,6.00
2009,05,28,05,05,6.00
2009,05,28,05,06,6.00
2009,05,28,05,07,6.00
2009,05,28,05,08,5.90
2009,05,28,05,09,5.90
2009,05,28,05,10,5.90
2009,05,28,05,11,5.90
2009,05,28,05,12,5.90
2009,05,28,05,13,5.90
2009,05,28,05,14,5.90
2009,05,28,05,15,5.90
2009,05,28,05,16,5.90
2009,05,28,05,17,5.90
2009,05,28,05,18,5.80
2009,05,28,05,19,5.80
2009,05,28,05,20,5.80
2009,05,28,05,21,5.80
2009,05,28,05,22,5.80
2009,05,28,05,23,5.80
2009,05,28,05,24,5.80
2009,05,28,05,25,5.80
2009,05,28,05,26,5.80
2009,05,28,05,27,5.80
2009,05,28,05,28,5.80
2009,05,28,05,29,5.80
2009,05,28,05,30,5.80
2009,05,28,05,31,5.80
2009,05,28,05,32,5.80
2009,05,28,05,33,5.80
2009,05,28,05,34,5.80
2009,05,28,05,35,5.80
2009,05,28,05,36,5.80
2009,05,28,05,37,5.80
2009,05,28,05,38,5.80
2009,05,28,05,39,5.80
2009,05,28,05,40,5.80
2009,05,28,05,41,5.70
2009,05,28,05,42,5.80
2009,05,28,05,43,5.70
2009,05,28,05,44,5.70
2009,05,28,05,45,5.70
2009,05,28,05,46,5.70
2009,05,28,05,47,5.70
2009,05,28,05,48,5.70
2009,05,28,05,49,5.80
2009,05,28,05,50,5.80
2009,05,28,05,51,5.80
2009,05,28,05,52,5.80
2009,05,28,05,53,5.80
2009,05,28,05,54,5.80
2009,05,28,05,55,5.80
2009,05,28,05,56,5.80
2009,05,28,05,57,5.80
2009,05,28,05,58,5.80
2009,05,28,05,59,5.80
2009,05,28,06,00,5.80
2009,05,28,06,01,5.80
2009,05,28,06,02,5.80
2009,05,28,06,03,5.80
2009,05,28,06,04,5.80
2009,05,28,06,05,5.80
2009,05,28,06,06,5.80
2009,05,28,06,07,5.80
2009,05,28,06,08,5.80
2009,05,28,06,09,5.80
2009,05,28,06,10,5.80
2009,05,28,06,11,5.80
2009,05,28,06,12,5.80
2009,05,28,06,13,5.80
2009,05,28,06,14,5.80
2009,05,28,06,15,5.80
2009,05,28,06,16,5.80
2009,05,28,06,17,5.90
2009,05,28,06,18,5.90
2009,05,28,06,19,5.90
2009,05,28,06,20,5.90
2009,05,28,06,21,5.90
2009,05,28,06,22,5.90
2009,05,28,06,23,5.90
2009,05,28,06,24,6.00
2009,05,28,06,25,6.00
2009,05,28,06,26,6.00
2009,05,28,06,27,6.00
2009,05,28,06,28,6.10
2009,05,28,06,29,6.10
2009,05,28,06,30,6.10
2009,05,28,06,31,6.10
2009,05,28,06,32,6.10
2009,05,28,06,33,6.20
2009,05,28,06,34,6.20
2009,05,28,06,35,6.20
2009,05,28,06,36,6.20
2009,05,28,06,37,6.30
2009,05,28,06,38,6.30
2009,05,28,06,39,6.40
2009,05,28,06,40,6.50
2009,05,28,06,41,6.50
2009,05,28,06,42,6.60
2009,05,28,06,43,6.60
2009,05,28,06,44,6.70
2009,05,28,06,45,6.70
2009,05,28,06,46,6.80
2009,05,28,06,47,6.80
2009,05,28,06,48,6.90
2009,05,28,06,49,7.00
2009,05,28,06,50,7.00
2009,05,28,06,51,7.10
2009,05,28,06,52,7.10
2009,05,28,06,53,7.20
2009,05,28,06,54,7.20
2009,05,28,06,55,7.20
2009,05,28,06,56,7.30
2009,05,28,06,57,7.30
2009,05,28,06,58,7.40
2009,05,28,06,59,7.60
2009,05,28,07,00,7.70
2009,05,28,07,01,7.90
2009,05,28,07,02,8.00
2009,05,28,07,03,8.20
2009,05,28,07,04,8.30
2009,05,28,07,05,8.50
2009,05,28,07,06,8.60
2009,05,28,07,07,8.70
2009,05,28,07,08,8.80
2009,05,28,07,09,8.90
2009,05,28,07,10,9.00
2009,05,28,07,11,9.20
2009,05,28,07,12,9.30
2009,05,28,07,13,9.40
2009,05,28,07,14,9.60
2009,05,28,07,15,9.70
2009,05,28,07,16,9.90
2009,05,28,07,17,10.00
2009,05,28,07,18,10.10
2009,05,28,07,19,10.20
2009,05,28,07,20,10.30
2009,05,28,07,21,10.40
2009,05,28,07,22,10.50
2009,05,28,07,23,10.50
2009,05,28,07,24,10.60
2009,05,28,07,25,10.70
2009,05,28,07,26,10.80
2009,05,28,07,27,10.90
2009,05,28,07,28,11.00
2009,05,28,07,29,11.00
2009,05,28,07,30,11.10
2009,05,28,07,31,11.20
2009,05,28,07,32,11.30
2009,05,28,07,33,11.30
2009,05,28,07,34,11.40
2009,05,28,07,35,11.50
2009,05,28,07,36,11.60
2009,05,28,07,37,11.70
2009,05,28,07,38,11.80
2009,05,28,07,39,12.00
2009,05,28,07,40,12.10
2009,05,28,07,41,12.20
2009,05,28,07,42,12.30
2009,05,28,07,43,12.30
2009,05,28,07,44,12.40
2009,05,28,07,45,12.50
2009,05,28,07,46,12.50
2009,05,28,07,47,12.60
2009,05,28,07,48,12.60
2009,05,28,07,49,12.70
2009,05,28,07,50,12.80
2009,05,28,07,51,12.90
2009,05,28,07,52,13.00
2009,05,28,07,53,13.10
2009,05,28,07,54,13.20
2009,05,28,07,55,13.30
2009,05,28,07,56,13.30
2009,05,28,07,57,13.40
2009,05,28,07,58,13.40
2009,05,28,07,59,13.40
2009,05,28,08,00,13.40
2009,05,28,08,01,13.50
2009,05,28,08,02,13.50
2009,05,28,08,03,13.40
2009,05,28,08,04,13.40
2009,05,28,08,05,13.40
2009,05,28,08,06,13.40
2009,05,28,08,07,13.40
2009,05,28,08,08,13.30
2009,05,28,08,09,13.30
2009,05,28,08,10,13.30
2009,05,28,08,11,13.30
2009,05,28,08,12,13.30
2009,05,28,08,13,13.40
2009,05,28,08,14,13.40
2009,05,28,08,15,13.40
2009,05,28,08,16,13.50
2009,05,28,08,17,13.60
2009,05,28,08,18,13.60
2009,05,28,08,19,13.70
2009,05,28,08,20,13.80
2009,05,28,08,21,13.90
2009,05,28,08,22,14.00
2009,05,28,08,23,14.10
2009,05,28,08,24,14.20
2009,05,28,08,25,14.30
2009,05,28,08,26,14.50
2009,05,28,08,27,14.60
2009,05,28,08,28,14.80
2009,05,28,08,29,15.00
2009,05,28,08,30,15.00
2009,05,28,08,31,15.00
2009,05,28,08,32,15.00
2009,05,28,08,33,15.00
2009,05,28,08,34,14.90
2009,05,28,08,35,14.90
2009,05,28,08,36,14.90
2009,05,28,08,37,15.00
2009,05,28,08,38,15.00
2009,05,28,08,39,15.00
2009,05,28,08,40,15.00
2009,05,28,08,41,15.00
2009,05,28,08,42,15.00
2009,05,28,08,43,15.00
2009,05,28,08,44,15.10
2009,05,28,08,45,15.20
2009,05,28,08,46,15.20
2009,05,28,08,47,15.30
2009,05,28,08,48,15.40
2009,05,28,08,49,15.50
2009,05,28,08,50,15.60
2009,05,28,08,51,15.60
2009,05,28,08,52,15.60
2009,05,28,08,53,15.50
2009,05,28,08,54,15.50
2009,05,28,08,55,15.50
2009,05,28,08,56,15.60
2009,05,28,08,57,15.70
2009,05,28,08,58,15.80
2009,05,28,08,59,15.90
2009,05,28,09,00,15.80
2009,05,28,09,01,15.80
2009,05,28,09,02,15.70
2009,05,28,09,03,15.80
2009,05,28,09,04,15.80
2009,05,28,09,05,15.90
2009,05,28,09,06,16.00
2009,05,28,09,07,16.10
2009,05,28,09,08,16.10
2009,05,28,09,09,16.10
2009,05,28,09,10,15.90
2009,05,28,09,11,15.80
2009,05,28,09,12,15.80
2009,05,28,09,13,15.70
2009,05,28,09,14,15.60
2009,05,28,09,15,15.50
2009,05,28,09,16,15.40
2009,05,28,09,17,15.40
2009,05,28,09,18,15.50
2009,05,28,09,19,15.50
2009,05,28,09,20,15.60
2009,05,28,09,21,15.70
2009,05,28,09,22,15.70
2009,05,28,09,23,15.70
2009,05,28,09,24,15.70
2009,05,28,09,25,15.80
2009,05,28,09,26,15.80
2009,05,28,09,27,15.90
2009,05,28,09,28,15.90
2009,05,28,09,29,15.90
2009,05,28,09,30,16.00
2009,05,28,09,31,16.00
2009,05,28,09,32,16.10
2009,05,28,09,33,16.10
2009,05,28,09,34,16.20
2009,05,28,09,35,16.10
2009,05,28,09,36,16.10
2009,05,28,09,37,16.00
2009,05,28,09,38,16.10
2009,05,28,09,39,16.20
2009,05,28,09,40,16.20
2009,05,28,09,41,16.30
2009,05,28,09,42,16.40
2009,05,28,09,43,16.40
2009,05,28,09,44,16.50
2009,05,28,09,45,16.50
2009,05,28,09,46,16.50
2009,05,28,09,47,16.60
2009,05,28,09,48,16.60
2009,05,28,09,49,16.70
2009,05,28,09,50,16.80
2009,05,28,09,51,16.80
2009,05,28,09,52,16.70
2009,05,28,09,53,16.70
2009,05,28,09,54,16.70
2009,05,28,09,55,16.80
2009,05,28,09,56,16.80
2009,05,28,09,57,16.90
2009,05,28,09,58,17.00
2009,05,28,09,59,17.10
2009,05,28,10,00,17.00
2009,05,28,10,01,16.90
2009,05,28,10,02,16.90
2009,05,28,10,03,16.90
2009,05,28,10,04,17.00
2009,05,28,10,05,17.10
2009,05,28,10,06,17.10
2009,05,28,10,07,17.20
2009,05,28,10,08,17.20
2009,05,28,10,09,17.30
2009,05,28,10,10,17.40
2009,05,28,10,11,17.30
2009,05,28,10,12,17.20
2009,05,28,10,13,17.00
2009,05,28,10,14,16.80
2009,05,28,10,15,16.70
2009,05,28,10,16,16.60
2009,05,28,10,17,16.60
2009,05,28,10,18,16.60
2009,05,28,10,19,16.60
2009,05,28,10,20,16.70
2009,05,28,10,21,16.80
2009,05,28,10,22,16.80
2009,05,28,10,23,16.80
2009,05,28,10,24,16.80
2009,05,28,10,25,16.80
2009,05,28,10,26,16.80
2009,05,28,10,27,16.90
2009,05,28,10,28,17.00
2009,05,28,10,29,17.10
2009,05,28,10,30,17.20
2009,05,28,10,31,17.20
2009,05,28,10,32,17.10
2009,05,28,10,33,17.10
2009,05,28,10,34,17.10
2009,05,28,10,35,17.10
2009,05,28,10,36,17.00
2009,05,28,10,37,17.00
2009,05,28,10,38,16.90
2009,05,28,10,39,16.90
2009,05,28,10,40,17.00
2009,05,28,10,41,17.10
2009,05,28,10,42,17.30
2009,05,28,10,43,17.20
2009,05,28,10,44,17.10
2009,05,28,10,45,17.00
2009,05,28,10,46,17.00
2009,05,28,10,47,16.90
2009,05,28,10,48,16.90
2009,05,28,10,49,16.90
2009,05,28,10,50,16.80
2009,05,28,10,51,16.80
2009,05,28,10,52,16.80
2009,05,28,10,53,16.90
2009,05,28,10,54,17.00
2009,05,28,10,55,17.00
2009,05,28,10,56,17.00
2009,05,28,10,57,16.90
2009,05,28,10,58,16.90
2009,05,28,10,59,16.90
2009,05,28,11,00,17.00
2009,05,28,11,01,17.00
2009,05,28,11,02,17.10
2009,05,28,11,03,17.20
2009,05,28,11,04,17.40
2009,05,28,11,05,17.50
2009,05,28,11,06,17.50
2009,05,28,11,07,17.50
2009,05,28,11,08,17.60
2009,05,28,11,09,17.70
2009,05,28,11,10,17.80
2009,05,28,11,11,17.90
2009,05,28,11,12,17.90
2009,05,28,11,13,18.00
2009,05,28,11,14,18.10
2009,05,28,11,15,18.20
2009,05,28,11,16,18.30
2009,05,28,11,17,18.40
2009,05,28,11,18,18.30
2009,05,28,11,19,18.10
2009,05,28,11,20,17.90
2009,05,28,11,21,17.60
2009,05,28,11,22,17.60
2009,05,28,11,23,17.50
2009,05,28,11,24,17.60
2009,05,28,11,25,17.70
2009,05,28,11,26,17.60
2009,05,28,11,27,17.60
2009,05,28,11,28,17.50
2009,05,28,11,29,17.50
2009,05,28,11,30,17.70
2009,05,28,11,31,17.80
2009,05,28,11,32,17.80
2009,05,28,11,33,17.80
2009,05,28,11,34,17.90
2009,05,28,11,35,18.00
2009,05,28,11,36,18.10
2009,05,28,11,37,18.20
2009,05,28,11,38,18.30
2009,05,28,11,39,18.30
2009,05,28,11,40,18.10
2009,05,28,11,41,18.00
2009,05,28,11,42,17.90
2009,05,28,11,43,17.70
2009,05,28,11,44,17.70
2009,05,28,11,45,17.60
2009,05,28,11,46,17.50
2009,05,28,11,47,17.40
2009,05,28,11,48,17.40
2009,05,28,11,49,17.40
2009,05,28,11,50,17.40
2009,05,28,11,51,17.40
2009,05,28,11,52,17.40
2009,05,28,11,53,17.40
2009,05,28,11,54,17.50
2009,05,28,11,55,17.60
2009,05,28,11,56,17.70
2009,05,28,11,57,17.90
2009,05,28,11,58,17.90
2009,05,28,11,59,17.90
2009,05,28,12,00,18.00
2009,05,28,12,01,18.00
2009,05,28,12,02,18.10
2009,05,28,12,03,18.10
2009,05,28,12,04,18.20
2009,05,28,12,05,18.30
2009,05,28,12,06,18.50
2009,05,28,12,07,18.60
2009,05,28,12,08,18.70
2009,05,28,12,09,18.90
2009,05,28,12,10,18.90
2009,05,28,12,11,18.80
2009,05,28,12,12,18.70
2009,05,28,12,13,18.50
2009,05,28,12,14,18.40
2009,05,28,12,15,18.30
2009,05,28,12,16,18.20
2009,05,28,12,17,18.10
2009,05,28,12,18,18.00
2009,05,28,12,19,17.90
2009,05,28,12,20,17.90
2009,05,28,12,21,17.90
2009,05,28,12,22,18.00
2009,05,28,12,23,18.00
2009,05,28,12,24,18.10
2009,05,28,12,25,18.20
2009,05,28,12,26,18.40
2009,05,28,12,27,18.60
2009,05,28,12,28,18.80
2009,05,28,12,29,18.90
2009,05,28,12,30,19.10
2009,05,28,12,31,19.20
2009,05,28,12,32,19.10
2009,05,28,12,33,19.00
2009,05,28,12,34,19.10
2009,05,28,12,35,19.20
2009,05,28,12,36,19.30
2009,05,28,12,37,19.20
2009,05,28,12,38,19.10
2009,05,28,12,39,19.00
2009,05,28,12,40,19.00
2009,05,28,12,41,18.90
2009,05,28,12,42,19.00
2009,05,28,12,43,19.00
2009,05,28,12,44,18.90
2009,05,28,12,45,18.90
2009,05,28,12,46,18.90
2009,05,28,12,47,19.00
2009,05,28,12,48,19.20
2009,05,28,12,49,19.40
2009,05,28,12,50,19.40
2009,05,28,12,51,19.40
2009,05,28,12,52,19.50
2009,05,28,12,53,19.50
2009,05,28,12,54,19.40
2009,05,28,12,55,19.20
2009,05,28,12,56,19.10
2009,05,28,12,57,19.00
2009,05,28,12,58,18.90
2009,05,28,12,59,19.00
2009,05,28,13,00,19.00
2009,05,28,13,01,19.00
2009,05,28,13,02,19.10
2009,05,28,13,03,19.20
2009,05,28,13,04,19.40
2009,05,28,13,05,19.40
2009,05,28,13,06,19.50
2009,05,28,13,07,19.60
2009,05,28,13,08,19.70
2009,05,28,13,09,19.80
2009,05,28,13,10,19.70
2009,05,28,13,11,19.50
2009,05,28,13,12,19.30
2009,05,28,13,13,19.30
2009,05,28,13,14,19.40
2009,05,28,13,15,19.40
2009,05,28,13,16,19.60
2009,05,28,13,17,19.60
2009,05,28,13,18,19.60
2009,05,28,13,19,19.60
2009,05,28,13,20,19.40
2009,05,28,13,21,19.40
2009,05,28,13,22,19.20
2009,05,28,13,23,19.20
2009,05,28,13,24,19.10
2009,05,28,13,25,19.10
2009,05,28,13,26,19.20
2009,05,28,13,27,19.30
2009,05,28,13,28,19.50
2009,05,28,13,29,19.60
2009,05,28,13,30,19.80
2009,05,28,13,31,19.90
2009,05,28,13,32,20.00
2009,05,28,13,33,20.10
2009,05,28,13,34,20.20
2009,05,28,13,35,20.10
2009,05,28,13,36,20.10
2009,05,28,13,37,20.20
2009,05,28,13,38,20.30
2009,05,28,13,39,20.50
2009,05,28,13,40,20.70
2009,05,28,13,41,20.70
2009,05,28,13,42,20.70
2009,05,28,13,43,20.80
2009,05,28,13,44,20.80
2009,05,28,13,45,21.00
2009,05,28,13,46,21.10
2009,05,28,13,47,20.90
2009,05,28,13,48,20.80
2009,05,28,13,49,20.70
2009,05,28,13,50,20.60
2009,05,28,13,51,20.60
2009,05,28,13,52,20.80
2009,05,28,13,53,20.80
2009,05,28,13,54,20.80
2009,05,28,13,55,20.80
2009,05,28,13,56,20.90
2009,05,28,13,57,21.10
2009,05,28,13,58,21.20
2009,05,28,13,59,21.30
2009,05,28,14,00,21.40
2009,05,28,14,01,21.30
2009,05,28,14,02,21.00
2009,05,28,14,03,20.60
2009,05,28,14,04,20.40
2009,05,28,14,05,20.30
2009,05,28,14,06,20.30
2009,05,28,14,07,20.20
2009,05,28,14,08,20.20
2009,05,28,14,09,20.30
2009,05,28,14,10,20.30
2009,05,28,14,11,20.40
2009,05,28,14,12,20.40
2009,05,28,14,13,20.40
2009,05,28,14,14,20.40
2009,05,28,14,15,20.60
2009,05,28,14,16,20.70
2009,05,28,14,17,20.80
2009,05,28,14,18,21.00
2009,05,28,14,19,21.00
2009,05,28,14,20,20.90
2009,05,28,14,21,20.70
2009,05,28,14,22,20.70
2009,05,28,14,23,20.60
2009,05,28,14,24,20.60
2009,05,28,14,25,20.70
2009,05,28,14,26,20.70
2009,05,28,14,27,20.80
2009,05,28,14,28,20.90
2009,05,28,14,29,21.00
2009,05,28,14,30,21.20
2009,05,28,14,31,21.20
2009,05,28,14,32,21.10
2009,05,28,14,33,20.80
2009,05,28,14,34,20.70
2009,05,28,14,35,20.60
2009,05,28,14,36,20.60
2009,05,28,14,37,20.50
2009,05,28,14,38,20.30
2009,05,28,14,39,20.30
2009,05,28,14,40,20.40
2009,05,28,14,41,20.50
2009,05,28,14,42,20.70
2009,05,28,14,43,20.80
2009,05,28,14,44,20.80
2009,05,28,14,45,20.70
2009,05,28,14,46,20.70
2009,05,28,14,47,20.80
2009,05,28,14,48,20.90
2009,05,28,14,49,20.90
2009,05,28,14,50,20.70
2009,05,28,14,51,20.60
2009,05,28,14,52,20.50
2009,05,28,14,53,20.50
2009,05,28,14,54,20.40
2009,05,28,14,55,20.30
2009,05,28,14,56,20.30
2009,05,28,14,57,20.30
2009,05,28,14,58,20.30
2009,05,28,14,59,20.30
2009,05,28,15,00,20.40
2009,05,28,15,01,20.30
2009,05,28,15,02,20.30
2009,05,28,15,03,20.30
2009,05,28,15,04,20.40
2009,05,28,15,05,20.40
2009,05,28,15,06,20.50
2009,05,28,15,07,20.60
2009,05,28,15,08,20.50
2009,05,28,15,09,20.50
2009,05,28,15,10,20.50
2009,05,28,15,11,20.50
2009,05,28,15,12,20.50
2009,05,28,15,13,20.50
2009,05,28,15,14,20.60
2009,05,28,15,15,20.60
2009,05,28,15,16,20.60
2009,05,28,15,17,20.70
2009,05,28,15,18,20.70
2009,05,28,15,19,20.70
2009,05,28,15,20,20.80
2009,05,28,15,21,20.90
2009,05,28,15,22,20.90
2009,05,28,15,23,20.90
2009,05,28,15,24,20.80
2009,05,28,15,25,20.70
2009,05,28,15,26,20.80
2009,05,28,15,27,20.90
2009,05,28,15,28,20.80
2009,05,28,15,29,20.80
2009,05,28,15,30,20.80
2009,05,28,15,31,20.90
2009,05,28,15,32,21.00
2009,05,28,15,33,21.00
2009,05,28,15,34,20.90
2009,05,28,15,35,20.90
2009,05,28,15,36,21.00
2009,05,28,15,37,21.20
2009,05,28,15,38,21.30
2009,05,28,15,39,21.30
2009,05,28,15,40,21.40
2009,05,28,15,41,21.40
2009,05,28,15,42,21.30
2009,05,28,15,43,21.40
2009,05,28,15,44,21.50
2009,05,28,15,45,21.70
2009,05,28,15,46,21.80
2009,05,28,15,47,21.80
2009,05,28,15,48,21.80
2009,05,28,15,49,21.80
2009,05,28,15,50,21.70
2009,05,28,15,51,21.50
2009,05,28,15,52,21.40
2009,05,28,15,53,21.30
2009,05,28,15,54,21.30
2009,05,28,15,55,21.40
2009,05,28,15,56,21.40
2009,05,28,15,57,21.30
2009,05,28,15,58,21.30
2009,05,28,15,59,21.30
2009,05,28,16,00,21.40
2009,05,28,16,01,21.40
2009,05,28,16,02,21.50
2009,05,28,16,03,21.50
2009,05,28,16,04,21.40
2009,05,28,16,05,21.30
2009,05,28,16,06,21.30
2009,05,28,16,07,21.40
2009,05,28,16,08,21.50
2009,05,28,16,09,21.70
2009,05,28,16,10,21.80
2009,05,28,16,11,21.90
2009,05,28,16,12,22.00
2009,05,28,16,13,22.10
2009,05,28,16,14,21.90
2009,05,28,16,15,21.80
2009,05,28,16,16,21.70
2009,05,28,16,17,21.70
2009,05,28,16,18,21.70
2009,05,28,16,19,21.70
2009,05,28,16,20,21.70
2009,05,28,16,21,21.60
2009,05,28,16,22,21.60
2009,05,28,16,23,21.70
2009,05,28,16,24,21.80
2009,05,28,16,25,22.00
2009,05,28,16,26,22.20
2009,05,28,16,27,22.40
2009,05,28,16,28,22.50
2009,05,28,16,29,22.60
2009,05,28,16,30,22.70
2009,05,28,16,31,22.80
2009,05,28,16,32,22.90
2009,05,28,16,33,22.90
2009,05,28,16,34,22.80
2009,05,28,16,35,22.70
2009,05,28,16,36,22.60
2009,05,28,16,37,22.50
2009,05,28,16,38,22.50
2009,05,28,16,39,22.60
2009,05,28,16,40,22.70
2009,05,28,16,41,22.60
2009,05,28,16,42,22.50
2009,05,28,16,43,22.30
2009,05,28,16,44,22.10
2009,05,28,16,45,22.10
2009,05,28,16,46,22.10
2009,05,28,16,47,22.10
2009,05,28,16,48,22.10
2009,05,28,16,49,22.10
2009,05,28,16,50,22.00
2009,05,28,16,51,22.00
2009,05,28,16,52,21.90
2009,05,28,16,53,21.80
2009,05,28,16,54,21.90
2009,05,28,16,55,21.90
2009,05,28,16,56,21.90
2009,05,28,16,57,21.90
2009,05,28,16,58,21.90
2009,05,28,16,59,21.90
2009,05,28,17,00,22.00
2009,05,28,17,01,22.20
2009,05,28,17,02,22.30
2009,05,28,17,03,22.30
2009,05,28,17,04,22.20
2009,05,28,17,05,22.10
2009,05,28,17,06,22.00
2009,05,28,17,07,21.90
2009,05,28,17,08,21.90
2009,05,28,17,09,21.80
2009,05,28,17,10,21.80
2009,05,28,17,11,21.80
2009,05,28,17,12,21.80
2009,05,28,17,13,21.80
2009,05,28,17,14,21.80
2009,05,28,17,15,21.80
2009,05,28,17,16,21.70
2009,05,28,17,17,21.70
2009,05,28,17,18,21.70
2009,05,28,17,19,21.70
2009,05,28,17,20,21.80
2009,05,28,17,21,21.90
2009,05,28,17,22,22.00
2009,05,28,17,23,22.10
2009,05,28,17,24,22.20
2009,05,28,17,25,22.30
2009,05,28,17,26,22.30
2009,05,28,17,27,22.30
2009,05,28,17,28,22.30
2009,05,28,17,29,22.20
2009,05,28,17,30,22.10
2009,05,28,17,31,22.00
2009,05,28,17,32,22.00
2009,05,28,17,33,21.90
2009,05,28,17,34,21.80
2009,05,28,17,35,21.90
2009,05,28,17,36,21.90
2009,05,28,17,37,22.00
2009,05,28,17,38,22.10